Regional Weather Roundup
Issued by NWS

Home | Current Version | Previous Version | Graphics & Text | Print | Product List | Glossary On
Versions: 1 2 3 4 5 6 7 8 9 10 11 12 13 14 15 16 17 18 19 20 21 22 23 24 25 26 27 28 29 30 31 32 33 34 35 36 37 38 39 40 41 42 43 44 45 46 47 48 49 50
024
ASUS43 KLMK 252310
RWRKY
KENTUCKY REGIONAL WEATHER ROUNDUP
NATIONAL WEATHER SERVICE LOUISVILLE KY
700 PM EDT MON SEP 25 2017

NOTE "FAIR" INDICATES FEW OR NO CLOUDS BELOW 12,000 FEET
WITH NO SIGNIFICANT WEATHER AND/OR OBSTRUCTIONS TO VISIBILITY.

KYZ001>023-026-027-061>063-070>075-260000-
WESTERN AND SOUTH CENTRAL KENTUCKY

CITY           SKY/WX    TMP DP  RH WIND       PRES   REMARKS
PADUCAH        CLEAR     86  63  45 E7        29.92S
HENDERSON      MOCLDY    84  67  56 SE3       29.94S
OWENSBORO      PTCLDY    87  67  51 SE3       29.94F HX  90
HOPKINSVILLE   CLEAR     86  61  43 CALM      29.93F
BOWLING GREEN  CLEAR     84  69  60 NE5       29.95S
GLASGOW        CLEAR     82  64  54 E3        29.95F
$$

KYZ024-025-028>034-038-045-046-053-260000-
NORTH CENTRAL KENTUCKY

CITY           SKY/WX    TMP DP  RH WIND       PRES   REMARKS
LOUISVILLE/SDF PTCLDY    86  64  47 E7        29.95S
LOUISVILLE/LOU PTCLDY    85  64  49 SE5       29.96S
FORT KNOX      PTCLDY    83  66  55 E5        29.95S
$$

KYZ035>037-039>044-047>052-055>060-089>105-260000-
NORTHEAST KENTUCKY

CITY           SKY/WX    TMP DP  RH WIND       PRES   REMARKS
LEXINGTON      PTCLDY    82  64  54 E7        29.99F
COVINGTON      CLOUDY    80  69  69 S3        29.98F
FRANKFORT      PTCLDY    84  62  47 SE5       29.97F
$$

KYZ054-064>069-076>088-106>120-260000-
SOUTHEAST KENTUCKY

CITY           SKY/WX    TMP DP  RH WIND       PRES   REMARKS
JACKSON        PTCLDY    79  64  60 CALM      30.02S
LONDON         CLEAR     81  62  52 NE3       30.00F
SOMERSET       PTCLDY    79  61  53 CALM      30.00S
MIDDLESBORO    PTCLDY    79  66  65 CALM      30.00S
MONTICELLO     CLEAR     81  65  58 VRB5      30.00S
$$





USA.gov is the U.S. government's official web portal to all federal, state and local government web resources and services.